Regional Weather Roundup
Issued by NWS Binghamton, NY

Home | Current Version | Previous Version | Text Only | Print | Product List | Glossary On
Versions: 1 2 3 4 5 6 7 8 9 10 11 12 13 14 15 16 17 18 19 20 21 22 23 24 25 26 27 28 29 30 31 32 33 34 35 36 37 38 39 40 41 42 43 44 45 46 47 48 49 50
000
ASUS41 KBGM 251510
RWRBGM

REGIONAL WEATHER ROUNDUP
NATIONAL WEATHER SERVICE BINGHAMTON NY
1100 AM EDT SUN JUN 25 2017

Note: "fair" indicates few or no clouds below 12,000 feet with no
significant weather and/or obstructions to visibility.

* = Station(s) that does not report precipitation, such as rain,
snow, etc, also no thunder or fog.

NYZ009-015>018-022>025-036-037-044>046-055>057-062-251600
...Central New York...

CITY           SKY/WX    TMP DP  RH WIND       PRES   REMARKS
Binghamton     PTSUNNY   68  55  64 W9        30.02S
Cortland       PTSUNNY   70  54  56 SW13      30.01S
Dansville      PTSUNNY   72  52  49 VRB5      30.00F
Elmira         PTSUNNY   70  54  56 SW9       29.99F
Seneca Falls   MOSUNNY   75  52  43 W14       29.98F
Ithaca         PTSUNNY   72  54  53 W7        30.01S
Hamilton       PTSUNNY   72  52  49 SW8       29.99S
Hornell        MOSUNNY   70  52  52 W12G20    30.04S
Monticello     SUNNY     70  61  73 W9        30.03S
Norwich        PTSUNNY   72  52  49 SW5       30.00S
Oneonta        SUNNY     68 N/A N/A SW8       30.01S
Penn Yan       PTSUNNY   71  50  47 SW14      30.00S
Rome           MOSUNNY   71  57  61 SW10      29.96F
Sidney         PTSUNNY   72  61  68 CALM      30.00S
Syracuse       PTSUNNY   72  56  57 SW17G23   29.96S
$$

PAZ038>040-043-044-047-048-072-251600
...Northeast Pennsylvania...

CITY           SKY/WX    TMP DP  RH WIND       PRES   REMARKS
Hazleton         N/A     77  55  47 W3        30.07S
Scranton       MOSUNNY   75  58  55 W8        30.01S
$$
&&
KEY
WCI = Wind Chill Index
VSB = Visibility
HX  = Heat Index
$$



USA.gov is the U.S. government's official web portal to all federal, state and local government web resources and services.